Time[GMT],significant_wave_height[m](0m),dominant_wave_period[s](0m),max_wave_height[m](0m),mean_wave_direction[degrees](0m),mean_wave_direction_spread[degrees](0m)
2014-05-09 19:00, 1.04,6.9,1.62,102.40,35.00
2014-05-09 20:00, 1.02,6.9,1.49,102.40,37.00
2014-05-09 21:00, 0.96,6.3,1.53,99.40,35.00
2014-05-09 22:00, 0.97,6.7,1.60,103.40,36.00
2014-05-09 23:00, 0.97,6.9,1.52,98.40,38.00
2014-05-10 00:00, 1.05,7.1,2.11,97.40,34.00
2014-05-10 01:00, 1.29,5.6,2.10,94.40,29.00
2014-05-10 02:00, 1.26,5.4,2.09,98.40,31.00
2014-05-10 03:00, 1.18,6.9,1.85,95.40,32.00
2014-05-10 04:00, 1.18,5.4,2.24,99.40,32.00
2014-05-10 05:00, 1.16,6.7,1.80,95.40,31.00
2014-05-10 06:00, 1.06,6.5,1.94,93.40,35.00
2014-05-10 07:00, 1.06,6.9,1.80,92.40,35.00
2014-05-10 08:00, 1.15,6.9,2.03,89.40,34.00
2014-05-10 09:00, 1.15,6.3,1.98,94.40,33.00
2014-05-10 10:00, 1.10,5.9,1.83,94.40,33.00
2014-05-10 11:00, 1.36,5.4,2.11,96.40,35.00
2014-05-10 12:00, 1.24,6.9,2.03,94.40,31.00
2014-05-10 13:00, 1.13,6.5,1.78,94.40,30.00
2014-05-10 14:00, 1.16,6.9,1.98,98.40,28.00
2014-05-10 15:00, 1.13,6.5,1.70,96.40,29.00
2014-05-10 16:00, 1.39,6.3,2.36,91.40,29.00
2014-05-10 17:00, 1.46,6.9,2.57,91.40,26.00
2014-05-10 18:00, 1.42,7.1,2.59,85.40,29.00
2014-05-10 19:00, 1.38,6.7,2.64,89.40,27.00
2014-05-10 20:00, 1.25,6.7,1.87,85.40,30.00
2014-05-10 21:00, 1.14,6.5,1.86,86.40,30.00
2014-05-10 22:00, 1.11,7.4,2.08,87.40,31.00
2014-05-10 23:00, 1.47,6.1,2.31,85.40,29.00
2014-05-11 00:00, 1.48,6.9,2.29,93.40,28.00
2014-05-11 01:00, 1.52,5.9,3.16,94.40,31.00
2014-05-11 02:00, 1.71,7.1,2.61,97.40,30.00
2014-05-11 03:00, 1.54,6.3,2.66,95.40,31.00
2014-05-11 04:00, 1.62,7.4,3.11,94.40,30.00
2014-05-11 05:00, 1.62,7.1,2.71,94.40,30.00
2014-05-11 06:00, 1.50,6.3,2.19,93.40,29.00
2014-05-11 07:00, 1.70,7.1,3.12,94.40,26.00
2014-05-11 08:00, 1.38,6.5,2.41,98.40,28.00
2014-05-11 09:00, 1.21,6.5,2.08,99.40,33.00
2014-05-11 10:00, 1.27,7.1,2.11,106.40,32.00
2014-05-11 11:00, 1.23,7.4,1.89,108.40,32.00
2014-05-11 12:00, 1.29,7.1,2.28,106.40,35.00
2014-05-11 13:00, 1.33,6.9,2.30,104.40,32.00
2014-05-11 14:00, 1.26,6.3,2.14,107.40,33.00
2014-05-11 15:00, 1.26,6.9,2.01,105.40,32.00
2014-05-11 16:00, 1.21,7.7,1.93,106.40,30.00
2014-05-11 17:00, 1.11,5.1,1.58,108.40,33.00
2014-05-11 18:00, 1.20,5.7,1.82,105.40,30.00
2014-05-11 19:00, 1.10,7.1,2.18,104.40,35.00
2014-05-11 20:00, 1.13,5.9,1.79,105.40,32.00
2014-05-11 21:00, 1.11,5.6,2.08,103.40,34.00
2014-05-11 22:00, 1.17,,1.75,103.40,37.00
2014-05-11 23:00, 1.28,4.0,2.05,101.40,34.00
2014-05-12 00:00, 1.44,4.3,2.38,108.40,34.00
2014-05-12 01:00, 1.37,5.9,2.31,112.40,36.00
2014-05-12 02:00, 1.48,5.1,2.41,111.40,32.00
2014-05-12 03:00, 1.56,5.6,2.43,106.40,32.00
2014-05-12 04:00, 1.47,5.4,2.90,109.40,33.00
2014-05-12 05:00, 1.55,5.6,2.55,115.40,34.00
2014-05-12 06:00, 1.76,5.9,2.82,116.40,33.00
2014-05-12 07:00, 1.56,5.9,2.59,116.40,35.00
2014-05-12 08:00, 1.48,5.9,2.24,104.40,35.00
2014-05-12 09:00, 1.31,4.7,1.97,101.40,34.00
2014-05-12 10:00, 1.43,7.4,2.19,104.40,32.00
2014-05-12 11:00, 1.39,7.1,2.25,103.40,35.00
2014-05-12 12:00, 1.51,6.7,2.40,110.40,32.00
2014-05-12 13:00, 1.58,6.1,2.52,109.40,33.00
2014-05-12 14:00, 1.54,6.7,2.83,110.40,34.00
2014-05-12 15:00, 1.37,6.3,2.17,109.40,36.00
2014-05-12 16:00, 1.48,6.9,2.27,111.40,34.00
2014-05-12 17:00, 1.35,6.5,2.29,111.40,35.00
2014-05-12 18:00, 1.41,6.5,2.35,111.40,34.00
2014-05-12 19:00, 1.49,5.9,2.47,109.40,32.00
2014-05-12 20:00, 1.51,6.3,2.49,107.40,31.00
2014-05-12 21:00, 1.61,6.5,3.25,105.40,30.00
2014-05-12 22:00, 1.62,6.1,2.56,107.40,32.00
2014-05-12 23:00, 1.54,6.3,2.41,106.40,33.00
2014-05-13 00:00, 1.70,6.3,2.35,101.40,32.00
2014-05-13 01:00, 1.81,6.5,2.82,101.40,28.00
2014-05-13 02:00, 2.15,6.3,3.34,101.40,28.00
2014-05-13 03:00, 1.88,6.3,2.83,102.40,30.00
2014-05-13 04:00, 1.66,6.7,2.26,105.40,33.00
2014-05-13 05:00, 1.76,6.7,2.96,107.40,30.00
2014-05-13 06:00, 1.56,6.7,2.74,102.40,31.00
2014-05-13 07:00, 1.43,6.3,2.04,103.40,29.00
2014-05-13 08:00, 1.28,6.3,2.10,102.40,30.00
2014-05-13 09:00, 1.15,8.0,1.88,106.40,32.00
2014-05-13 10:00, 1.11,8.0,1.69,110.40,37.00
2014-05-13 11:00, 1.14,7.7,1.85,105.40,34.00
2014-05-13 12:00, 1.03,6.3,1.73,106.40,34.00
2014-05-13 13:00, 1.12,8.3,2.06,106.40,33.00
2014-05-13 14:00, 1.16,8.0,1.85,111.40,33.00
2014-05-13 15:00, 1.22,5.4,2.53,107.40,32.00
2014-05-13 16:00, 1.11,6.1,2.10,106.40,31.00
2014-05-13 17:00, 1.17,5.7,1.76,108.40,34.00
2014-05-13 18:00, 1.19,8.3,2.17,108.40,31.00
2014-05-13 19:00, 1.14,5.9,1.84,107.40,33.00
2014-05-13 20:00, 1.29,5.9,2.18,105.40,32.00
2014-05-13 21:00, 1.35,5.7,2.38,98.40,34.00
2014-05-13 22:00, 1.38,6.1,2.20,104.40,32.00
2014-05-13 23:00, 1.36,5.9,2.68,103.40,31.00
2014-05-14 00:00, 1.36,6.1,1.94,101.40,31.00
2014-05-14 01:00, 1.20,5.7,1.84,104.40,30.00
2014-05-14 02:00, 1.37,5.9,2.04,99.40,28.00
2014-05-14 03:00, 1.25,6.1,2.10,102.40,31.00
2014-05-14 04:00, 1.31,6.5,2.00,101.40,30.00
2014-05-14 05:00, 1.47,6.7,2.23,101.40,29.00
2014-05-14 06:00, 1.41,5.9,1.86,102.40,30.00
2014-05-14 07:00, 1.36,6.3,2.56,99.40,32.00
2014-05-14 08:00, 1.36,6.5,2.17,101.40,31.00
2014-05-14 09:00, 1.33,6.5,2.51,100.40,30.00
2014-05-14 10:00, 1.47,5.9,2.44,99.40,29.00
2014-05-14 11:00, 1.43,6.3,2.23,99.40,31.00
2014-05-14 12:00, 1.47,5.6,2.10,101.40,31.00
2014-05-14 13:00, 1.50,5.7,2.35,107.40,30.00
2014-05-14 14:00, 1.30,6.5,2.30,102.40,30.00
2014-05-14 15:00, 1.17,5.9,1.91,105.40,32.00
2014-05-14 16:00, 1.14,5.3,1.95,105.40,33.00
2014-05-14 17:00, 1.14,5.7,1.72,100.40,34.00
2014-05-14 18:00, 1.15,6.3,2.14,100.40,33.00
2014-05-14 19:00, 1.21,5.6,1.91,101.40,34.00
2014-05-14 20:00, 1.10,5.7,2.16,100.40,33.00
2014-05-14 21:00, 1.09,5.9,1.69,101.40,35.00
2014-05-14 22:00, 1.09,6.5,1.66,100.40,33.00
2014-05-14 23:00, 1.08,5.7,2.06,97.40,33.00
2014-05-15 00:00, 1.02,5.7,1.54,96.40,33.00
2014-05-15 01:00, 1.13,6.3,1.78,99.40,31.00
2014-05-15 02:00, 1.07,5.7,1.88,96.40,32.00
2014-05-15 03:00, 1.10,6.1,1.85,99.40,29.00
2014-05-15 04:00, 1.08,4.0,2.07,94.40,32.00
2014-05-15 05:00, 1.06,5.7,1.81,102.40,33.00
2014-05-15 06:00, 1.00,5.3,1.72,99.40,32.00
2014-05-15 07:00, 1.04,5.6,2.27,96.40,33.00
2014-05-15 08:00, 1.11,5.7,1.84,99.40,31.00
2014-05-15 09:00, 1.17,6.1,2.14,102.40,31.00
2014-05-15 10:00, 1.16,5.6,2.22,97.40,32.00
2014-05-15 11:00, 1.14,5.4,1.86,103.40,31.00
2014-05-15 12:00, 1.24,5.7,1.96,100.40,33.00
2014-05-15 13:00, 1.31,5.4,2.08,99.40,31.00
2014-05-15 14:00, 1.22,5.9,1.75,100.40,32.00
2014-05-15 15:00, 1.26,6.1,2.36,102.40,30.00
2014-05-15 16:00, 1.09,5.9,1.92,104.40,33.00
2014-05-15 17:00, 1.09,6.3,1.79,103.40,31.00
2014-05-15 18:00, 1.01,6.1,1.63,99.40,32.00
2014-05-15 19:00, 1.04,6.7,1.71,99.40,33.00
2014-05-15 20:00, 1.08,7.4,1.66,93.40,31.00
2014-05-15 21:00, 1.12,5.7,1.91,90.40,33.00
2014-05-15 22:00, 1.19,5.7,1.74,95.40,31.00
2014-05-15 23:00, 1.15,6.7,2.01,96.40,33.00
2014-05-16 00:00, 1.13,5.4,1.65,93.40,33.00
2014-05-16 01:00, 1.10,5.9,1.71,100.40,33.00
2014-05-16 02:00, 1.06,5.6,1.82,97.40,32.00
2014-05-16 03:00, 1.06,5.7,1.53,98.40,32.00
2014-05-16 04:00, 1.02,6.3,1.68,102.40,29.00
2014-05-16 05:00, 1.05,5.7,1.54,98.40,31.00
2014-05-16 06:00, 1.05,6.1,1.83,96.40,29.00
2014-05-16 07:00, 1.13,7.7,2.00,93.40,30.00
2014-05-16 08:00, 1.12,6.5,1.75,95.40,29.00
2014-05-16 09:00, 1.09,5.3,1.68,100.40,29.00
2014-05-16 10:00, 1.02,5.4,1.62,95.40,30.00
2014-05-16 11:00, 1.08,5.9,2.01,96.40,31.00
2014-05-16 12:00, 1.11,5.0,1.90,96.40,30.00
2014-05-16 13:00, 1.05,6.1,1.78,96.40,32.00
2014-05-16 14:00, 1.06,5.4,1.71,99.40,33.00
2014-05-16 15:00, 1.11,5.4,1.68,95.40,28.00
2014-05-16 16:00, 1.00,5.9,1.61,99.40,31.00
2014-05-16 17:00, 0.91,6.1,1.46,95.40,36.00
2014-05-16 18:00, 0.93,5.7,1.60,99.40,31.00
2014-05-16 19:00, 0.86,5.7,1.59,97.40,34.00
2014-05-16 20:00, 0.88,5.6,1.26,99.40,33.00
2014-05-16 21:00, 0.88,5.3,1.55,98.40,33.00
2014-05-16 22:00, 0.88,5.7,1.42,96.40,32.00
2014-05-16 23:00, 0.92,5.7,1.56,95.40,36.00
2014-05-17 00:00, 1.01,5.4,1.88,99.40,33.00
2014-05-17 01:00, 1.02,6.7,1.59,96.40,34.00
2014-05-17 02:00, 1.00,5.7,1.67,96.40,32.00
2014-05-17 03:00, 1.01,5.4,1.78,98.40,32.00
2014-05-17 04:00, 0.98,5.9,1.45,97.40,33.00
2014-05-17 05:00, 0.98,5.7,1.51,102.40,30.00
2014-05-17 06:00, 0.90,6.5,1.44,94.40,31.00
2014-05-17 07:00, 0.94,5.4,1.46,99.40,30.00
2014-05-17 08:00, 0.93,5.7,1.68,102.40,31.00
2014-05-17 09:00, 0.94,5.7,1.56,98.40,31.00
2014-05-17 10:00, 0.95,5.3,1.79,97.40,33.00
2014-05-17 11:00, 0.91,6.1,1.62,100.40,34.00
2014-05-17 12:00, 0.91,6.7,1.81,99.40,34.00
2014-05-17 13:00, 0.96,5.6,1.60,95.40,32.00
2014-05-17 14:00, 0.91,5.9,1.39,98.40,34.00
2014-05-17 15:00, 0.89,5.6,1.35,98.40,32.00
2014-05-17 16:00, 0.88,5.9,1.71,99.40,33.00
2014-05-17 17:00, 0.84,5.4,1.42,99.40,34.00
2014-05-17 18:00, 0.81,4.7,1.29,100.40,36.00
2014-05-17 19:00, 0.80,5.3,1.30,100.40,36.00
2014-05-17 20:00, 0.76,5.1,1.20,103.40,35.00
2014-05-17 21:00, 0.77,5.3,1.45,101.40,35.00
2014-05-17 22:00, 0.73,5.4,1.28,103.40,38.00
2014-05-17 23:00, 0.73,5.6,1.28,101.40,35.00
2014-05-18 00:00, 0.74,5.1,1.24,102.40,35.00
2014-05-18 01:00, 0.71,5.1,1.23,100.40,37.00
2014-05-18 02:00, 0.75,5.6,1.23,97.40,36.00
2014-05-18 03:00, 0.72,5.6,1.24,101.40,36.00
2014-05-18 04:00, 0.74,4.3,1.18,100.40,34.00
2014-05-18 05:00, 0.71,5.3,1.32,99.40,35.00
2014-05-18 06:00, 0.67,5.9,1.18,101.40,35.00
2014-05-18 07:00, 0.72,8.3,1.04,98.40,32.00
2014-05-18 08:00, 0.73,7.1,1.15,100.40,33.00
2014-05-18 09:00, 0.71,5.1,1.10,101.40,34.00
2014-05-18 10:00, 0.76,5.4,1.13,99.40,33.00
2014-05-18 11:00, 0.73,4.9,1.34,99.40,36.00
2014-05-18 12:00, 0.78,4.9,1.39,99.40,33.00
2014-05-18 13:00, 0.80,4.9,1.16,104.40,35.00
2014-05-18 14:00, 0.77,5.3,1.48,100.40,37.00
2014-05-18 15:00, 0.82,4.9,1.14,104.40,35.00
2014-05-18 16:00, 0.82,4.9,1.22,106.40,36.00
2014-05-18 17:00, 0.86,4.9,1.45,109.40,38.00
2014-05-18 18:00, 0.85,5.0,1.40,106.40,36.00
2014-05-18 19:00, 0.80,5.1,1.59,103.40,39.00
2014-05-18 20:00, 0.77,5.0,1.21,106.40,39.00
2014-05-18 21:00, 0.82,5.3,1.35,101.40,37.00
2014-05-18 22:00, 0.84,5.3,1.31,101.40,38.00
2014-05-18 23:00, 0.78,5.7,1.19,102.40,39.00
2014-05-19 00:00, 0.80,4.8,1.65,103.40,37.00
2014-05-19 01:00, 0.84,5.1,1.42,99.40,34.00
2014-05-19 02:00, 0.83,4.9,1.24,96.40,35.00
2014-05-19 03:00, 0.86,4.8,1.30,99.40,34.00
2014-05-19 04:00, 0.91,4.9,1.49,99.40,34.00
2014-05-19 05:00, 0.94,3.9,1.51,94.40,33.00
2014-05-19 06:00, 0.92,4.7,1.42,97.40,34.00
2014-05-19 07:00, 0.90,4.7,1.78,95.40,35.00
2014-05-19 08:00, 0.88,4.8,1.64,99.40,36.00
2014-05-19 09:00, 0.99,5.3,1.62,100.40,32.00
2014-05-19 10:00, 1.01,5.3,1.47,102.40,33.00
2014-05-19 11:00, 1.06,5.6,2.00,99.40,33.00
2014-05-19 12:00, 0.95,5.6,1.44,96.40,37.00
2014-05-19 13:00, 1.06,5.7,1.75,102.40,35.00
2014-05-19 14:00, 1.01,5.6,1.76,102.40,37.00
2014-05-19 15:00, 1.20,5.7,1.92,105.40,30.00
2014-05-19 16:00, 1.19,5.9,1.78,101.40,32.00
2014-05-19 17:00, 1.15,5.6,1.89,104.40,34.00
2014-05-19 18:00, 1.12,5.9,1.92,106.40,35.00
2014-05-19 19:00, 1.16,5.9,1.91,106.40,35.00
2014-05-19 20:00, 1.08,6.1,1.71,107.40,36.00
2014-05-19 21:00, 1.09,5.7,1.84,115.40,37.00
2014-05-19 22:00, 1.00,5.7,1.66,113.40,37.00
2014-05-19 23:00, 0.96,5.7,1.87,109.40,38.00
2014-05-20 00:00, 0.97,5.6,2.20,109.40,38.00
2014-05-20 01:00, 0.94,5.6,1.59,105.40,36.00
2014-05-20 02:00, 0.97,5.7,1.53,106.40,36.00
2014-05-20 03:00, 1.00,5.6,1.55,108.40,35.00
2014-05-20 04:00, 1.05,5.4,1.82,102.40,35.00
2014-05-20 05:00, 1.09,5.6,1.65,105.40,35.00
2014-05-20 06:00, 1.08,5.6,1.67,106.40,32.00
2014-05-20 07:00, 1.03,5.3,2.04,110.40,35.00
2014-05-20 08:00, 1.10,5.4,1.69,111.40,35.00
2014-05-20 09:00, 1.17,5.6,1.83,114.40,35.00
2014-05-20 10:00, 1.18,5.3,1.82,114.40,35.00
2014-05-20 11:00, 1.17,6.1,2.19,118.40,37.00
2014-05-20 12:00, 1.17,6.1,1.77,115.40,37.00
2014-05-20 13:00, 1.15,5.9,2.20,117.40,40.00
2014-05-20 14:00, 1.18,6.1,2.25,120.40,36.00
2014-05-20 15:00, 1.07,6.3,1.80,118.40,38.00
2014-05-20 16:00, 1.10,6.7,1.88,120.40,38.00
2014-05-20 17:00, 1.02,5.7,1.89,118.40,38.00
2014-05-20 18:00, 1.07,5.9,1.72,120.40,38.00
2014-05-20 19:00, 1.04,6.5,1.73,114.40,35.00
2014-05-20 20:00, 0.95,6.3,1.55,117.40,38.00
2014-05-20 21:00, 0.89,5.9,1.64,114.40,39.00
2014-05-20 22:00, 0.89,6.3,1.53,117.40,39.00
2014-05-20 23:00, 0.81,5.9,1.30,114.40,39.00
2014-05-21 00:00, 0.85,5.9,1.45,111.40,39.00
2014-05-21 01:00, 0.78,5.7,1.13,109.40,39.00
2014-05-21 02:00, 0.82,5.4,1.25,109.40,39.00
2014-05-21 03:00, 0.83,5.7,1.65,108.40,38.00
2014-05-21 04:00, 0.82,5.9,1.33,107.40,37.00
2014-05-21 05:00, 0.84,5.3,1.38,107.40,34.00
2014-05-21 06:00, 0.78,6.1,1.38,114.40,40.00
2014-05-21 07:00, 0.86,5.4,1.26,114.40,38.00
2014-05-21 08:00, 0.88,4.2,1.52,111.40,36.00
2014-05-21 09:00, 0.80,5.7,1.50,110.40,38.00
2014-05-21 10:00, 0.79,5.9,1.22,113.40,37.00
2014-05-21 11:00, 0.79,5.4,1.30,111.40,37.00
2014-05-21 12:00, 0.86,5.7,1.28,119.40,38.00
2014-05-21 13:00, 0.79,6.5,1.14,117.40,43.00
2014-05-21 14:00, 0.83,6.3,1.66,116.40,43.00
2014-05-21 15:00, 0.85,5.7,1.46,117.40,42.00
2014-05-21 16:00, 0.85,4.8,1.54,120.40,42.00
2014-05-21 17:00, 0.86,5.9,1.35,117.40,43.00
2014-05-21 18:00, 0.89,5.9,1.66,119.40,40.00
2014-05-21 19:00, 0.87,5.7,1.29,124.40,41.00
2014-05-21 20:00, 0.84,6.1,1.28,125.40,42.00
2014-05-21 21:00, 0.82,5.9,1.24,120.40,42.00
2014-05-21 22:00, 0.79,5.4,1.24,128.40,41.00
2014-05-21 23:00, 0.75,6.1,1.24,119.40,43.00
2014-05-22 00:00, 0.84,5.6,1.24,123.40,39.00
2014-05-22 01:00, 0.85,5.6,1.44,121.40,39.00
2014-05-22 02:00, 0.88,5.9,1.50,117.40,38.00
2014-05-22 03:00, 0.87,6.5,1.47,117.40,38.00
2014-05-22 04:00, 1.03,5.0,1.65,108.40,36.00
2014-05-22 05:00, 0.95,5.7,1.52,109.40,38.00
2014-05-22 06:00, 0.95,5.9,1.52,114.40,37.00
2014-05-22 07:00, 1.00,5.3,1.74,117.40,35.00
2014-05-22 08:00, 0.96,4.5,1.32,112.40,37.00
2014-05-22 09:00, 1.02,5.4,1.60,115.40,37.00
2014-05-22 10:00, 1.00,5.9,1.66,118.40,37.00
2014-05-22 11:00, 1.00,5.7,1.54,111.40,38.00
2014-05-22 12:00, 1.05,5.7,1.74,114.40,34.00
2014-05-22 13:00, 0.96,6.1,1.50,112.40,39.00
2014-05-22 14:00, 0.98,5.9,1.65,115.40,40.00
2014-05-22 15:00, 0.96,5.7,1.42,118.40,38.00
2014-05-22 16:00, 0.98,5.7,1.79,115.40,39.00
2014-05-22 17:00, 1.03,5.4,1.70,114.40,38.00
2014-05-22 18:00, 1.03,5.4,1.76,118.40,37.00
2014-05-22 19:00, 0.97,5.7,1.59,115.40,37.00
2014-05-22 20:00, 1.01,5.4,1.56,116.40,35.00
2014-05-22 21:00, 1.01,5.7,1.65,112.40,35.00
2014-05-22 22:00, 1.04,5.6,1.63,114.40,35.00
2014-05-22 23:00, 1.10,5.4,1.74,108.40,35.00
2014-05-23 00:00, 1.17,5.6,1.77,109.40,34.00
2014-05-23 01:00, 1.26,6.3,2.24,106.40,33.00
2014-05-23 02:00, 1.27,6.3,1.88,104.40,32.00
2014-05-23 03:00, 1.21,5.9,2.66,106.40,36.00
2014-05-23 04:00, 1.23,6.3,1.90,105.40,34.00
2014-05-23 05:00, 1.12,5.7,2.06,103.40,35.00
2014-05-23 06:00, 1.23,5.9,1.90,109.40,31.00
2014-05-23 07:00, 1.22,5.9,2.41,111.40,33.00
2014-05-23 08:00, 1.23,6.1,2.00,113.40,33.00
2014-05-23 09:00, 1.26,6.1,2.14,113.40,34.00
2014-05-23 10:00, 1.37,6.9,2.22,111.40,31.00
2014-05-23 11:00, 1.44,5.9,2.33,108.40,33.00
2014-05-23 12:00, 1.44,5.7,2.19,110.40,33.00
2014-05-23 13:00, 1.44,6.1,2.32,110.40,34.00
2014-05-23 14:00, 1.52,6.7,2.42,106.40,34.00
2014-05-23 15:00, 1.44,7.1,2.24,107.40,36.00
2014-05-23 16:00, 1.39,6.1,3.11,102.40,35.00
2014-05-23 17:00, 1.46,6.1,2.18,107.40,34.00
2014-05-23 18:00, 1.52,6.5,2.53,109.40,31.00
2014-05-23 19:00, 1.50,6.5,2.31,110.40,33.00
2014-05-23 20:00, 1.40,6.3,2.55,108.40,34.00
2014-05-23 21:00, 1.37,6.9,2.36,110.40,34.00
2014-05-23 22:00, 1.35,6.5,1.97,114.40,34.00
2014-05-23 23:00, 1.33,6.7,2.28,103.40,33.00
2014-05-24 00:00, 1.38,6.5,2.24,101.40,34.00
2014-05-24 01:00, 1.26,6.1,2.05,100.40,33.00
2014-05-24 02:00, 1.28,6.3,2.27,103.40,32.00
2014-05-24 03:00, 1.24,5.9,2.30,101.40,33.00
2014-05-24 04:00, 1.29,6.3,2.11,101.40,33.00
2014-05-24 05:00, 1.42,6.3,2.41,100.40,30.00
2014-05-24 06:00, 1.25,5.7,2.17,101.40,34.00
2014-05-24 07:00, 1.24,5.9,1.75,98.40,34.00
2014-05-24 08:00, 1.35,5.6,2.19,103.40,31.00
2014-05-24 09:00, 1.39,6.1,2.36,100.40,31.00
2014-05-24 10:00, 1.42,5.9,2.61,102.40,30.00
2014-05-24 11:00, 1.36,6.1,2.25,106.40,32.00
2014-05-24 12:00, 1.30,6.3,2.12,106.40,33.00
2014-05-24 13:00, 1.20,6.3,2.30,104.40,35.00
2014-05-24 14:00, 1.23,6.7,2.02,109.40,34.00
2014-05-24 15:00, 1.19,6.3,2.14,108.40,32.00
2014-05-24 16:00, 1.19,5.9,2.13,111.40,32.00
2014-05-24 17:00, 1.15,6.3,1.91,114.40,35.00
2014-05-24 18:00, 1.16,6.1,1.84,113.40,33.00
2014-05-24 19:00, 1.11,5.9,1.74,113.40,35.00
2014-05-24 20:00, 1.04,5.9,1.77,110.40,36.00
2014-05-24 21:00, 1.06,5.9,1.56,111.40,35.00
2014-05-24 22:00, 1.02,6.3,1.79,114.40,32.00
2014-05-24 23:00, 1.00,6.1,1.59,108.40,35.00
2014-05-25 00:00, 0.99,6.9,1.60,102.40,35.00
2014-05-25 01:00, 1.13,6.7,1.59,105.40,31.00
2014-05-25 02:00, 1.08,6.3,1.63,102.40,34.00
2014-05-25 03:00, 1.04,8.0,1.56,103.40,34.00
2014-05-25 04:00, 1.05,5.6,1.61,102.40,35.00
2014-05-25 05:00, 1.15,8.0,1.58,98.40,32.00
2014-05-25 06:00, 1.13,5.4,1.82,101.40,32.00
2014-05-25 07:00, 1.19,5.4,1.79,100.40,32.00
2014-05-25 08:00, 1.09,5.1,1.90,97.40,36.00
2014-05-25 09:00, 1.08,5.1,1.63,103.40,33.00
2014-05-25 10:00, 1.11,5.6,1.94,101.40,33.00
2014-05-25 11:00, 1.16,7.4,1.54,100.40,33.00
2014-05-25 12:00, 1.26,8.0,1.87,98.40,34.00
2014-05-25 13:00, 1.16,5.1,1.77,96.40,36.00
2014-05-25 14:00, 1.16,5.7,2.00,99.40,33.00
2014-05-25 15:00, 1.25,5.6,2.01,103.40,33.00
2014-05-25 16:00, 1.13,5.9,1.81,103.40,34.00
2014-05-25 17:00, 1.08,5.6,1.90,105.40,36.00
2014-05-25 18:00, 1.11,5.7,2.02,106.40,34.00
2014-05-25 19:00, 1.08,5.9,2.01,112.40,34.00
2014-05-25 20:00, 1.07,5.9,1.83,111.40,35.00
2014-05-25 21:00, 1.13,8.0,2.06,106.40,34.00
2014-05-25 22:00, 1.03,5.9,1.48,104.40,35.00
2014-05-25 23:00, 1.04,7.1,1.79,100.40,36.00
2014-05-26 00:00, 1.14,5.9,1.89,102.40,33.00
2014-05-26 01:00, 1.08,8.3,2.22,100.40,33.00
2014-05-26 02:00, 1.08,8.3,2.00,103.40,33.00
2014-05-26 03:00, 1.15,5.6,1.93,98.40,31.00
2014-05-26 04:00, 1.06,6.1,1.76,101.40,34.00
2014-05-26 05:00, 1.04,5.9,1.58,104.40,32.00
2014-05-26 06:00, 1.07,5.9,1.68,100.40,30.00
2014-05-26 07:00, 1.05,6.1,1.59,100.40,32.00
2014-05-26 08:00, 1.01,5.6,1.68,98.40,34.00
2014-05-26 09:00, 1.07,5.7,1.67,103.40,32.00
2014-05-26 10:00, 1.05,8.3,1.82,100.40,33.00
2014-05-26 11:00, 1.18,5.9,1.92,100.40,34.00
2014-05-26 12:00, 1.19,5.6,1.76,103.40,30.00
2014-05-26 13:00, 1.30,5.3,2.20,100.40,30.00
2014-05-26 14:00, 1.16,5.4,1.65,99.40,30.00
2014-05-26 15:00, 1.28,5.9,2.40,103.40,29.00
2014-05-26 16:00, 1.14,5.7,2.02,99.40,35.00
2014-05-26 17:00, 1.13,5.7,1.96,101.40,33.00
2014-05-26 18:00, 1.13,5.1,2.17,101.40,34.00
2014-05-26 19:00, 1.12,8.0,1.92,103.40,34.00
2014-05-26 20:00, 1.08,5.7,1.61,107.40,36.00
2014-05-26 21:00, 1.04,5.9,1.53,106.40,35.00
2014-05-26 22:00, 0.99,5.4,1.85,108.40,34.00
2014-05-26 23:00, 1.05,5.1,1.52,109.40,33.00
2014-05-27 00:00, 1.00,5.3,1.59,104.40,33.00
2014-05-27 01:00, 1.01,8.0,1.69,99.40,32.00
2014-05-27 02:00, 1.01,6.3,1.58,104.40,32.00
2014-05-27 03:00, 1.05,5.6,1.87,101.40,30.00
2014-05-27 04:00, 1.05,8.3,1.72,102.40,27.00
2014-05-27 05:00, 1.04,5.3,1.53,99.40,29.00
2014-05-27 06:00, 1.03,5.4,1.52,102.40,32.00
2014-05-27 07:00, 1.12,5.6,1.87,99.40,32.00
2014-05-27 08:00, 1.09,5.0,1.63,106.40,32.00
2014-05-27 09:00, 1.05,5.7,1.55,102.40,31.00
2014-05-27 10:00, 1.08,6.1,1.92,106.40,34.00
2014-05-27 11:00, 1.06,5.3,1.79,107.40,33.00
2014-05-27 12:00, 1.09,5.6,1.87,99.40,31.00
2014-05-27 13:00, 1.10,5.6,1.83,95.40,33.00
2014-05-27 14:00, 1.10,6.1,1.74,101.40,30.00
2014-05-27 15:00, 1.08,5.7,1.99,100.40,32.00
2014-05-27 16:00, 1.15,5.7,2.05,101.40,33.00
2014-05-27 17:00, 1.07,5.3,1.55,99.40,33.00
2014-05-27 18:00, 1.08,5.6,1.92,100.40,34.00
2014-05-27 19:00, 1.16,5.9,1.90,101.40,34.00
2014-05-27 20:00, 1.17,5.3,1.81,102.40,35.00
2014-05-27 21:00, 1.10,5.6,1.72,98.40,34.00
2014-05-27 22:00, 1.20,5.4,1.94,100.40,32.00
2014-05-27 23:00, 1.12,5.9,1.62,100.40,32.00
2014-05-28 00:00, 1.03,5.4,1.58,102.40,35.00
2014-05-28 01:00, 1.07,5.9,1.69,102.40,34.00
2014-05-28 02:00, 1.10,5.6,2.12,99.40,32.00
2014-05-28 03:00, 1.03,5.7,1.76,101.40,32.00
2014-05-28 04:00, 0.98,5.4,1.80,103.40,33.00
2014-05-28 05:00, 1.01,5.3,1.75,104.40,31.00
2014-05-28 06:00, 0.97,5.6,1.49,105.40,32.00
2014-05-28 07:00, 0.93,5.6,1.62,104.40,33.00
2014-05-28 08:00, 1.06,5.6,1.60,102.40,31.00
2014-05-28 09:00, 1.05,5.1,1.62,102.40,33.00
2014-05-28 10:00, 1.07,5.3,1.62,105.40,33.00
2014-05-28 11:00, 1.05,5.7,1.61,104.40,34.00
2014-05-28 12:00, 1.11,5.6,2.31,100.40,33.00
2014-05-28 13:00, 1.03,5.4,2.40,104.40,36.00
2014-05-28 14:00, 1.13,5.4,1.93,103.40,32.00
2014-05-28 15:00, 1.11,5.3,1.58,103.40,32.00
2014-05-28 16:00, 1.10,5.4,1.59,106.40,30.00
2014-05-28 17:00, 1.08,5.7,1.96,104.40,30.00
2014-05-28 18:00, 1.11,6.3,1.57,106.40,31.00
2014-05-28 19:00, 1.08,5.6,1.46,104.40,33.00
2014-05-28 20:00, 1.16,5.9,1.88,104.40,32.00
2014-05-28 21:00, 1.13,5.9,2.10,105.40,34.00
2014-05-28 22:00, 1.04,5.9,1.95,104.40,35.00
2014-05-28 23:00, 1.15,5.3,1.85,103.40,33.00
2014-05-29 00:00, 1.13,5.7,1.97,106.40,32.00
2014-05-29 01:00, 1.20,5.6,2.42,105.40,29.00
2014-05-29 02:00, 1.16,5.3,1.80,99.40,31.00
2014-05-29 03:00, 1.16,5.4,1.77,103.40,31.00
2014-05-29 04:00, 1.11,5.0,2.15,106.40,32.00
2014-05-29 05:00, 1.06,8.3,1.66,105.40,33.00
2014-05-29 06:00, 1.05,8.7,1.64,101.40,33.00
2014-05-29 07:00, 1.09,5.6,1.79,100.40,30.00
2014-05-29 08:00, 1.12,5.7,1.77,101.40,30.00
2014-05-29 09:00, 1.12,5.0,1.88,103.40,30.00
2014-05-29 10:00, 1.04,5.9,1.66,105.40,33.00
2014-05-29 11:00, 1.04,5.4,1.74,105.40,33.00
2014-05-29 12:00, 1.08,5.4,1.67,109.40,31.00
2014-05-29 13:00, 1.00,5.7,1.50,111.40,34.00
2014-05-29 14:00, 1.04,5.7,1.64,108.40,37.00
2014-05-29 15:00, 1.03,5.3,1.75,109.40,35.00
2014-05-29 16:00, 1.10,5.0,1.84,106.40,33.00
2014-05-29 17:00, 1.12,8.3,1.85,105.40,32.00
2014-05-29 18:00, 1.06,5.4,1.62,107.40,32.00
2014-05-29 19:00, 1.03,5.7,1.67,105.40,33.00
2014-05-29 20:00, 0.95,5.7,1.82,106.40,33.00
2014-05-29 21:00, 0.97,5.4,1.54,101.40,35.00
2014-05-29 22:00, 1.00,5.0,1.79,102.40,32.00
2014-05-29 23:00, 1.14,5.9,2.06,106.40,33.00
2014-05-30 00:00, 1.03,5.4,1.60,102.40,34.00
2014-05-30 01:00, 1.19,6.1,1.87,107.40,33.00
2014-05-30 02:00, 1.11,5.7,1.71,109.40,33.00
2014-05-30 03:00, 1.10,5.3,1.83,103.40,34.00
2014-05-30 04:00, 1.17,5.4,1.75,105.40,31.00
2014-05-30 05:00, 1.06,5.6,1.70,105.40,33.00
2014-05-30 06:00, 1.09,5.4,1.95,102.40,33.00
2014-05-30 07:00, 1.08,5.3,1.68,101.40,33.00
2014-05-30 08:00, 1.16,5.3,2.22,101.40,30.00
2014-05-30 09:00, 1.14,5.1,2.21,104.40,29.00
2014-05-30 10:00, 1.13,5.6,1.72,103.40,30.00
2014-05-30 11:00, 1.12,5.3,1.72,100.40,33.00
2014-05-30 12:00, 1.16,4.9,1.85,100.40,30.00
2014-05-30 13:00, 1.21,5.1,2.18,104.40,32.00
2014-05-30 14:00, 1.15,5.7,1.78,103.40,34.00
2014-05-30 15:00, 1.24,5.3,1.89,107.40,30.00
2014-05-30 16:00, 1.30,5.3,2.08,105.40,30.00
2014-05-30 17:00, 1.25,5.3,2.05,105.40,32.00
2014-05-30 18:00, 1.16,5.7,1.93,106.40,34.00
2014-05-30 19:00, 1.09,5.7,1.86,105.40,38.00
2014-05-30 20:00, 1.20,5.4,1.99,103.40,33.00
2014-05-30 21:00, 1.20,5.4,2.01,101.40,32.00
2014-05-30 22:00, 1.11,5.6,1.87,102.40,33.00
2014-05-30 23:00, 1.19,5.4,1.95,109.40,34.00
2014-05-31 00:00, 1.16,6.1,1.76,102.40,33.00
2014-05-31 01:00, 1.19,6.3,2.47,106.40,32.00
2014-05-31 02:00, 1.28,5.3,2.14,108.40,30.00
2014-05-31 03:00, 1.25,6.1,2.16,104.40,31.00
2014-05-31 04:00, 1.22,5.9,2.15,109.40,34.00
2014-05-31 05:00, 1.31,5.7,2.24,109.40,31.00
2014-05-31 06:00, 1.23,5.7,2.54,102.40,33.00
2014-05-31 07:00, 1.29,5.7,2.43,107.40,30.00
2014-05-31 08:00, 1.24,5.9,3.44,103.40,29.00
2014-05-31 09:00, 1.32,5.7,2.05,102.40,31.00
2014-05-31 10:00, 1.27,5.7,1.97,99.40,31.00
2014-05-31 11:00, 1.32,5.6,1.96,105.40,31.00